Regional Weather Roundup
Issued by NWS

Home | Current Version | Previous Version | Text Only | Print | Product List | Glossary On
Versions: 1 2 3 4 5 6 7 8 9 10 11 12 13 14 15 16 17 18 19 20 21 22 23 24 25 26 27 28 29 30 31 32 33 34 35 36 37 38 39 40 41 42 43 44 45 46 47 48 49 50
000
ASUS46 KPQR 252210
RWROR

OREGON REGIONAL WEATHER ROUNDUP
NATIONAL WEATHER SERVICE PORTLAND OR
200 PM PST TUE NOV 25 2014

NOTE: "FAIR" INDICATES FEW OR NO CLOUDS BELOW 12,000 FEET WITH
NO SIGNIFICANT WEATHER AND/OR OBSTRUCTIONS TO VISIBILITY.

ORZ001>013-252300-
NORTHWEST OREGON


CITY           SKY/WX    TMP DP  RH WIND       PRES   REMARKS
ASTORIA        CLOUDY    57  55  93 SW16G26   30.27S
NEWPORT        DRZL/FOG  55  55 100 S14       30.38F VSB 1/4
PORTLAND       CLOUDY    62  56  80 SW14      30.30F
VANCOUVER WA   CLOUDY    62  54  74 SW7       30.29F
SCAPPOOSE      CLOUDY    61  57  87 S3        30.28F
HILLSBORO      CLOUDY    62  56  80 S12       30.29F
AURORA         CLOUDY    60  55  83 S10       30.33S
MCMINNVILLE    PTSUNNY   61  58  90 SW10G20   30.32F
SALEM          PTSUNNY   62  55  77 S14       30.33S
CORVALLIS      CLOUDY    61  54  77 SW10      30.36F
EUGENE         CLOUDY    61  54  77 S14       30.39S
$$

ORZ021-028-252300-
SOUTHWEST OREGON


CITY           SKY/WX    TMP DP  RH WIND       PRES   REMARKS
NORTH BEND     CLOUDY    63  61  94 CALM      30.39F
BROOKINGS      SUNNY     61  53  74 CALM      30.41F
ROSEBURG       CLOUDY    59  51  75 CALM      30.40F
SEXTON SUMMIT  MOSUNNY   50  46  86 CALM      30.42F
MEDFORD        MOSUNNY   57  47  69 CALM      30.44F
$$

ORZ014>016-041-252300-
COLUMBIA GORGE


CITY           SKY/WX    TMP DP  RH WIND       PRES   REMARKS
TROUTDALE      CLOUDY    62  55  77 SW12G20   30.28F
THE DALLES     CLOUDY    61  51  70 NW16      30.20S
$$

ORZ029>031-041-044-049-050-061>064-502-503-505>511-252300-
EASTERN OREGON


CITY           SKY/WX    TMP DP  RH WIND       PRES   REMARKS
REDMOND        PTSUNNY   56  43  61 SW10      30.32F
BEND           PTSUNNY   54  41  62 SW15      30.34F
PRINEVILLE     MOSUNNY   57  43  58 SW12      30.33F
KLAMATH FALLS  MOSUNNY   56  40  55 W10       30.43F
LAKEVIEW       PTSUNNY   54  39  58 SE3       30.45F
HERMISTON      PTSUNNY   65  49  56 NW13G29   30.17R
PENDLETON      CLOUDY    56  48  74 N7        30.17R
JOHN DAY       CLOUDY    56  42  60 W10       30.29S
MEACHAM        LGT RAIN  49  47  93 VRB5      30.20S FOG
LA GRANDE      CLOUDY    52  45  76 NW13G20   30.17S
BAKER CITY     MOSUNNY   45  41  86 S7        30.20S
BURNS          PTSUNNY   51  40  65 SW15      30.33S
ROME             N/A     58  36  43 S22G29    30.31F
ONTARIO        PTSUNNY   45  37  73 CALM      30.25S
$$



USA.gov is the U.S. government's official web portal to all federal, state and local government web resources and services.